This is the latest recevied weather packets stored in our database for station/object WB5RFA. If no packets are shown the sender has not sent any weather packets the latest 10 day(s).
| Time | Temp. | Humidity | Pressure | Rain* | Wind** | Luminosity | Snow |
|---|---|---|---|---|---|---|---|
| 1777593912 | 16.11° C | 55% | 1014.8 hPa | 0 mm | - | - | - |
| 1777593431 | 16.67° C | 53% | 1014.7 hPa | 0 mm | - | - | - |
| 1777592950 | 16.67° C | 51% | 1014.6 hPa | 0 mm | - | - | - |
| 1777592471 | 16.67° C | 51% | 1014.5 hPa | 0 mm | - | - | - |
| 1777591990 | 17.22° C | 50% | 1014.5 hPa | 0 mm | - | - | - |
| 1777591512 | 17.22° C | 51% | 1014.4 hPa | 0 mm | - | - | - |
| 1777591031 | 17.78° C | 50% | 1014.3 hPa | 0 mm | - | - | - |
| 1777590550 | 17.78° C | 49% | 1014.2 hPa | 0 mm | - | - | - |
| 1777590071 | 18.33° C | 48% | 1014.1 hPa | 0 mm | - | - | - |
| 1777589591 | 18.33° C | 47% | 1014 hPa | 0 mm | - | - | - |
| 1777589112 | 18.89° C | 46% | 1013.9 hPa | 0 mm | - | - | - |
| 1777588631 | 18.89° C | 46% | 1013.9 hPa | 0 mm | - | - | - |
| 1777588151 | 18.89° C | 48% | 1013.8 hPa | 0 mm | - | - | - |
| 1777587671 | 18.89° C | 49% | 1013.9 hPa | 0 mm | - | - | - |
| 1777587192 | 18.33° C | 48% | 1013.9 hPa | 0 mm | - | - | - |
| 1777586711 | 18.33° C | 51% | 1013.9 hPa | 0 mm | - | - | - |
| 1777586232 | 18.33° C | 52% | 1014 hPa | 0 mm | - | - | - |
| 1777585751 | 18.33° C | 52% | 1014 hPa | 0 mm | - | - | - |
| 1777585271 | 18.33° C | 53% | 1014.1 hPa | 0 mm | - | - | - |
| 1777584792 | 18.33° C | 52% | 1014.2 hPa | 0 mm | - | - | - |
| 1777584311 | 18.33° C | 52% | 1014.3 hPa | 0 mm | - | - | - |
| 1777583832 | 18.33° C | 52% | 1014.3 hPa | 0 mm | - | - | - |
| 1777583351 | 18.89° C | 50% | 1014.5 hPa | 0 mm | - | - | - |
| 1777582872 | 18.89° C | 51% | 1014.5 hPa | 0 mm | - | - | - |
| 1777582391 | 18.89° C | 51% | 1014.6 hPa | 0 mm | - | - | - |
* Rain latest hour (hover to see other rain measurements)
** Current wind speed in m/s (hover to see current wind gust speed)